Regional Weather Roundup
Issued by NWS Grand Forks, ND

Home | Current Version | Previous Version | Text Only | Print | Product List | Glossary On
Versions: 1 2 3 4 5 6 7 8 9 10 11 12 13 14 15 16 17 18 19 20 21 22 23 24 25 26 27 28 29 30 31 32 33 34 35 36 37 38 39 40 41 42 43 44 45 46 47 48 49 50
000
ASUS43 KFGF 180810
RWRFGF
PRAIRIE TO PINES  WEATHER ROUNDUP
NATIONAL WEATHER SERVICE EASTERN NORTH DAKOTA/GRAND FORKS ND
200 AM CST TUE FEB 18 2020

 **SATELLITE DATA USED TO AUGMENT SKY COVER AT AUTOMATED STATIONS**
 *****  WEATHER ACROSS EASTERN NORTH DAKOTA  *****

CITY           SKY/WX    TMP DP  RH WIND       PRES   REMARKS
GRAND FORKS    CLOUDY    10   6  84 W5        30.17S WCI   2
GRAND FRKS AFB FLURRIES  12   9  85 NW10      30.17S WCI  -1
GRAND FRKS NWS   N/A     11   8  88 NW2       30.13S
DEVILS LAKE    FAIR       1  -4  79 W7        30.17S WCI -12
FARGO          CLOUDY    12   8  84 NW9       30.18R WCI   0
WAHPETON ARPT    N/A     14  10  85 N9        30.18R WCI   2
$$

 ***** WEATHER ACROSS CENTRAL AND WESTERN NORTH DAKOTA  *****

CITY           SKY/WX    TMP DP  RH WIND       PRES   REMARKS
BISMARCK       FLURRIES  14  10  84 SW5       30.20S WCI   6
MINOT          CLOUDY     9   0  67 NW24G33   30.22R WCI -12
JAMESTOWN      FAIR      11   6  81 NW13      30.16S WCI  -4
MINOT AFB      MOCLDY     8  -1  66 NW20G32   30.21R WCI -12
GARRISON         N/A     13  11  92 N10       30.19R WCI   0
WILLISTON      NOT AVBL
DICKINSON      LGT SNOW  20  16  84 N12       30.12R FOG     WCI   8
HETTINGER      CLOUDY    21  18  88 W3        30.11F
$$

 *****  OTHER AIRPORT OBSERVATIONS IN OUR AREA  *****

CITY           SKY/WX    TMP DP  RH WIND       PRES   REMARKS
WALHALLA       NOT AVBL
GRAFTON AIRPOR NOT AVBL
VALLEY CITY AR NOT AVBL
CANDO          CLOUDY    -2  -2 100 W8        30.19R WCI -17
CAVALIER APRT  CLOUDY     9   3  78 N7        30.16S WCI  -3
GWINNER        CLOUDY    19  18  93 N15       30.17R WCI   5
SHEYENNE NWR     N/A     15  13  93 N2        29.95S
ROLLA          NOT AVBL
 ***** THE ABOVE OBSERVATIONS ARE NON NWS ARE NOT QUALITY
       CONTROLLED AND MAY MIS-REPORT RAIN FOR SNOW...
$$

  *****  WEATHER ACROSS NORTHERN MINNESOTA  *****

CITY           SKY/WX    TMP DP  RH WIND       PRES   REMARKS
FLAG ISLAND      N/A      9   1  72 NW13      30.06S WCI  -7
WARROAD        FLURRIES   9   3  78 W3        30.09R
ROSEAU         FLURRIES   7   3  85 W9        30.10S WCI  -7
HALLOCK        CLOUDY     1  -2  85 W6        30.15S WCI -10
THF RVR FALLS  FLURRIES   5   2  87 NW8       30.13S WCI  -8
BAUDETTE       CLOUDY     7   2  80 NW10      30.05S WCI  -8
WASKISH          N/A     10   5  79 NW9       30.06S WCI  -2
CROOKSTON      NOT AVBL
STEPHEN NDAWN    N/A      3   1  92 MISG        N/A
GREENBUSH NDAW   N/A     -4  -8  84 VRB5        N/A  WCI -15
$$
  *****  WEATHER ACROSS CENTRAL AND WEST MINNESOTA  *****

CITY           SKY/WX    TMP DP  RH WIND       PRES   REMARKS
FOSSTON        FLURRIES   7   1  78 NW8       30.12R WCI  -6
BEMIDJI        FLURRIES   9   5  84 NW13      30.07R WCI  -6
PARK RAPIDS    CLOUDY    12   5  73 NW13      30.06R WCI  -3
ELBOW LAKE     FLURRIES  16  13  88 NW12      30.14R WCI   2
WADENA         CLOUDY    14   9  79 NW13      30.09R WCI   0
DETROIT LAKES  FLURRIES  10   9  92 NW12G20   30.13R WCI  -4
MOORHEAD       CLOUDY    14   7  73 NW7       30.19R WCI   4
FERGUS FALLS   CLOUDY    12   9  85 N15       30.17R WCI  -4
MORRIS MN      NOT AVBL
STAPLES        CLOUDY    16   9  73 W10G16    30.07R WCI   3
$$
  *****  WEATHER ELSEWHERE ACROSS MINNESOTA  *****

CITY           SKY/WX    TMP DP  RH WIND       PRES   REMARKS
DULUTH         FAIR      14  10  84 NW8       29.95R WCI   3
INTRNTL FALLS  CLOUDY    15   9  76 NW8       30.01R WCI   4
ELY            FLURRIES  12  10  92 NW3       29.95R
CLOQUET        FLURRIES  16  10  79 NW6       29.97S WCI   7
WHEATON        FLURRIES  18  14  86 N10       30.19R WCI   6
BRAINERD       CLOUDY    20  10  65 NW12      30.04R WCI   8
HIBBING        CLOUDY    15  10  80 NW15      29.98R WCI   0
ALEXANDRIA     CLOUDY    18  13  80 NW12      30.09R WCI   5
SAINT CLOUD    CLOUDY    18  13  80 NW8       30.06S WCI   8
MINNEAPOLIS    FAIR      20  14  77 NW13      30.07R WCI   7
$$

  *****  WEATHER ACROSS SOUTH DAKOTA  *****

CITY           SKY/WX    TMP DP  RH WIND       PRES   REMARKS
SIOUX FALLS    CLOUDY    24  19  81 W8        30.15R WCI  15
BROOKINGS      MOCLDY    19  18  93 NW12      30.12F WCI   7
WATERTOWN      CLOUDY    22  18  85 NW7       30.11R WCI  13
HURON          FAIR      15  12  88 NW9       30.19R WCI   3
SISSETON         N/A     21  17  84 N10       30.15R WCI  10
ABERDEEN       FAIR      19  12  74 NW13      30.21R WCI   6
MITCHELL       FAIR      20  16  84 W9        30.21R WCI   9
PIERRE         FAIR      19  17  92 NW6       30.19R WCI  11
MOBRIDGE       FAIR      14   9  80 CALM      30.17R
RAPID CITY     FAIR      17  12  80 W5        30.16R WCI  10
$$

  *****  SOME WEATHER IN NEARBY STATES *****

CITY           SKY/WX    TMP DP  RH WIND       PRES   REMARKS
GLASGOW MT     CLOUDY     2  -7  66 N13       30.34R WCI -15
GREAT FALLS MT CLOUDY    15  10  80 E8        30.20S WCI   4
CHEYENNE WY    FAIR      18   3  52 NW6       30.09S WCI  10
SCOTTSBLUFF NE FOG       20  20 100 NW5       30.17S VSB 3/4 WCI  13
OMAHA NE       FAIR      25  20  81 NW8       30.22R WCI  16
DES MOINES IA  CLOUDY    27  22  81 NW18      30.15R WCI  14
DAVENPORT IA   CLOUDY    33  30  88 W22G33    29.96R FOG     WCI  21
CHICAGO IL     CLOUDY    39  37  92 W12       29.79R FOG
EAU CLAIRE WI  LGT SNOW  27  21  78 NW14G25   29.94R WCI  16
LA CROSSE WI   CLOUDY    32  27  81 NW22G30   29.92R WCI  19
$$

  *****  SOME NATIONAL WEATHER *****

CITY           SKY/WX    TMP DP  RH WIND       PRES   REMARKS
LA GUARDIA NY  CLOUDY    37  21  52 E14       30.36F
RALEIGH NC     CLOUDY    43  38  82 E6        30.23F
ATLANTA GA     DRZL/FOG  52  50  93 E7        30.14F VSB 1/2
NEW ORLEANS LA CLOUDY    70  68  93 SE9       30.00F FOG
OKLAHOMA CITY  MOCLDY    47  31  53 NE21G30   30.00R
ALBUQUERQUE NM LGT RAIN  44  28  53 S6        29.99S
SALT LAKE CITY MOCLDY    29  22  75 N3        30.26R
LOS ANGELES CA MOCLDY    60  53  77 VRB5      29.96R
BOISE ID       FAIR      27  18  69 SE7       30.31R WCI  19
SEATTLE WA     MOCLDY    37  31  78 N6        30.41S
$$

*** WEATHER ACROSS MANITOBA...SASKATCHEWAN AND ONTARIO ***
                ***ONTARIO***

CITY           SKY/WX    TMP DP  RH WIND       PRES   REMARKS
GERALDTON      FRZ DRZL  18  16  93 N7        29.86S WCI   8
THUNDER BAY    CLOUDY    18  14  86 NW7       29.93R WCI   8
SIOUX LOOKOUT  FLURRIES  10   7  85 N7        29.97R WCI   0
TORONTO        LGT SNOW  30  28  93 E12G23    30.04F VSB 1   WCI  21
BIG TROUT LK   CLOUDY    -9 -13  84 W6        30.00S WCI -23
PICKLE LAKE    CLOUDY     7   1  78 NW3       29.94R
DRYDEN         FLURRIES  10   7  85 NW5       29.98R WCI   2
KENORA         FLURRIES   9   5  85 NW10      30.02S WCI  -6
$$
                *** MANITOBA***

CITY           SKY/WX    TMP DP  RH WIND       PRES   REMARKS
BRANDON        CLOUDY     3  -4  72 NW15      30.18R WCI -15
DAUPHIN        LGT SNOW   1  -2  85 NE20      30.25R WCI -20
ISLAND LAKE    PTCLDY    -8 -17  65 W6        30.09S WCI -21
PILOT MOUND      N/A      1  -2  85 NW9         N/A  WCI -14
THE PAS        CLEAR    -11 -18  70 W14       30.27R WCI -33
THOMPSON       CLEAR    -18 -26  69 W8        30.14R WCI -37
WINNIPEG       LGT SNOW   9   3  78 NW12      30.17R WCI  -6
LYNN LAKE      CLEAR    -20 -26  76 NW12G18   30.16R WCI -42
CHURCHILL      FLURRIES -18 -26  69 W18       29.97S WCI -45
GILLAM         CLEAR    -20 -26  76 W9        30.07R WCI -40
$$
                ***SASKATCHEWAN***

CITY           SKY/WX    TMP DP  RH WIND       PRES   REMARKS
ESTEVAN        CLEAR     -2  -9  71 NW20G26   30.28R WCI -25
KINDERSLEY     NOT AVBL
LLOYDMINSTER   CLEAR    -20 -26  76 W9        30.40S WCI -40
PRINCE ALBERT  CLEAR    -17 -24  70 W8        30.43R WCI -34
REGINA         CLEAR    -11 -17  77 NW13      30.35R WCI -32
YORKTON        PTCLDY    -9 -15  77 NW16      30.28R WCI -32
N. BATTLEFORD  CLEAR    -17 -24  70 NW8       30.47R WCI -34
LA RONGE       CLEAR    -15 -22  70 W9        30.37R WCI -33
SASKATOON      PTCLDY   -20 -27  69 W10       30.43R WCI -41
SWIFT CURRENT  CLEAR    -13 -18  77 NW8       30.31R WCI -30
$$
NOTE: THESE ARE AUTOMATED STATIONS WITH LIMITED QUALITY CONTROL
      "FAIR" INDICATES FEW OR NO CLOUDS BELOW 12,000 FEET WITH NO
      SIGNIFICANT WEATHER AND/OR OBSTRUCTIONS TO VISIBILITY.
      SKY/WX - SKY CONDITION AND SIGNIFICANT WEATHER.
      TMP - AIR TEMPERATURE.    DP   - DEWPOINT TEMPERATURE.
      RH  - RELATIVE HUMIDITY.  PRES - PRESSURE.
      HX  - HEAT INDEX.         WCI  - WIND CHILL INDEX.
$



USA.gov is the U.S. government's official web portal to all federal, state and local government web resources and services.